EW4960 Weather Reports


time (UTC)temp
C
wind
direction
speed
KPH
gust
KPH
rain 1hr
cm
rain 24hr
cm
rain mn
cm
humidity
%
barometer
mb
20260507223021 17 220 0.0 0.0 0.00 0.20 0.13 35 1004.8
20260507221517 17 210 0.0 0.0 0.00 0.20 0.13 30 1004.7
20260507220013 17 244 0.0 0.0 0.00 0.20 0.13 31 1004.6
20260507214508 18 230 0.0 0.0 0.00 0.20 0.13 30 1004.6
20260507213004 18 235 0.0 0.0 0.00 0.20 0.13 29 1004.4
20260507211628 18 198 0.0 0.0 0.00 0.20 0.13 32 1004.4
20260507210055 18 217 0.0 0.0 0.00 0.20 0.13 33 1004.3
20260507204600 17 217 0.0 0.0 0.00 0.25 0.13 34 1004.3
20260507203047 18 199 0.0 0.0 0.00 0.25 0.13 31 1004.2
20260507201542 18 234 0.0 0.0 0.00 0.25 0.13 32 1004.2
20260507200039 18 238 0.0 0.0 0.00 0.25 0.13 32 1004.4
20260507194538 18 232 0.0 0.0 0.00 0.30 0.13 32 1004.4
20260507193034 18 253 0.0 0.0 0.00 0.30 0.13 31 1004.5
20260507191525 18 322 0.0 0.0 0.00 0.30 0.13 33 1004.7
20260507190021 17 253 0.0 0.0 0.00 0.30 0.13 32 1004.8
20260507184519 18 248 0.0 0.0 0.00 0.30 0.13 32 1004.9
20260507183013 17 221 0.0 0.0 0.00 0.30 0.13 32 1005.0
20260507181507 17 223 0.0 0.0 0.00 0.30 0.13 34 1005.1
20260507180007 17 207 0.0 0.0 0.00 0.30 0.13 34 1005.2
20260507174559 17 324 0.0 0.0 0.00 0.30 0.13 39 1005.2
20260507173056 17 240 0.0 0.0 0.00 0.30 0.13 40 1005.4
20260507171554 17 244 0.0 0.0 0.00 0.30 0.13 41 1005.5
20260507170045 17 227 0.0 0.0 0.00 0.30 0.13 42 1005.6
20260507164541 16 221 0.0 0.0 0.00 0.30 0.13 52 1005.7
20260507163035 16 199 0.0 0.0 0.00 0.30 0.13 51 1005.8
20260507161531 15 203 0.0 0.0 0.00 0.30 0.13 53 1006.0
20260507160033 15 240 0.0 0.0 0.00 0.30 0.13 51 1006.1
20260507154523 16 221 0.0 0.0 0.00 0.30 0.13 56 1006.2
20260507153020 15 223 0.0 0.0 0.00 0.30 0.13 58 1006.2
20260507151513 15 223 0.0 0.0 0.00 0.30 0.13 59 1006.5
20260507150011 15 227 0.0 0.0 0.00 0.30 0.13 59 1006.5
20260507144505 14 227 0.0 0.0 0.00 0.30 0.13 57 1006.9
20260507143108 14 240 0.0 0.0 0.00 0.30 0.13 60 1006.8
20260507141557 14 242 0.0 0.0 0.00 0.30 0.13 61 1006.9
20260507140105 13 248 0.0 0.0 0.00 0.30 0.13 57 1007.0
20260507134548 13 254 0.0 0.0 0.00 0.30 0.13 61 1006.9
20260507133042 12 244 0.0 0.0 0.00 0.30 0.13 67 1007.0
20260507131543 12 244 0.0 0.0 0.00 0.30 0.13 66 1007.1
20260507130034 11 232 0.0 0.0 0.00 0.30 0.13 72 1007.2
20260507124532 10 229 0.0 0.0 0.00 0.30 0.13 74 1007.3
20260507123027 10 226 0.0 0.0 0.00 0.30 0.13 56 1007.3
20260507121520 10 225 0.0 0.0 0.00 0.30 0.13 43 1007.3
20260507120016 9 225 0.0 0.0 0.00 0.30 0.13 24 1007.1
20260507114512 9 225 0.0 0.0 0.00 0.30 0.13 7 1007.2
20260507113007 9 225 0.0 0.0 0.00 0.30 0.13 1 1007.1
20260507111504 9 225 0.0 0.0 0.00 0.30 0.13 1 1007.0
20260507110101 9 225 0.0 0.0 0.00 0.30 0.13 2 1007.0
20260507104555 8 225 0.0 0.0 0.03 0.30 0.13 5 1007.1
20260507103050 8 225 0.0 0.0 0.03 0.30 0.13 10 1006.7
20260507101600 8 225 0.0 0.0 0.05 0.30 0.13 12 1006.4
20260507100041 9 225 0.0 0.0 0.08 0.30 0.13 19 1006.5
20260507094539 9 225 0.0 0.0 0.05 0.28 0.10 25 1006.4
20260507093033 9 225 0.0 0.0 0.05 0.28 0.10 28 1006.6
20260507091548 10 225 0.0 0.0 0.03 0.25 0.08 25 1006.4
20260507090023 10 225 0.0 0.0 0.00 0.23 0.05 22 1006.7
20260507084523 10 225 0.0 0.0 0.00 0.23 0.05 25 1006.5
20260507083019 10 225 0.0 0.0 0.05 0.23 0.05 22 1006.4
20260507081510 11 225 0.0 0.0 0.05 0.23 0.05 21 1005.8
20260507080008 11 225 0.0 0.0 0.05 0.23 0.05 24 1006.2
20260507074508 11 225 0.0 0.0 0.05 0.23 0.05 39 1006.0
20260507073110 11 225 0.0 0.0 0.00 0.18 0.00 51 1006.0
20260507071558 11 225 0.0 0.0 0.00 0.18 0.00 54 1005.5
20260507070134 11 225 0.0 0.0 0.00 0.18 0.00 60 1005.7
20260507064549 11 225 0.0 0.0 0.00 0.18 0.00 62 1005.5
20260507063040 11 224 0.0 0.0 0.00 0.18 0.00 59 1005.4
20260507061536 12 220 0.0 0.0 0.00 0.18 0.00 19 1005.4
20260507060033 12 220 0.0 0.0 0.00 0.18 0.00 12 1005.4
20260507054527 12 220 0.0 0.0 0.00 0.18 0.00 14 1005.6
20260507053023 12 220 0.0 0.0 0.00 0.18 0.00 14 1005.8
20260507051518 13 219 0.0 0.0 0.00 0.18 0.00 12 1005.4
20260507050027 13 219 0.0 0.0 0.00 0.18 0.00 12 1005.5
20260507044525 13 219 0.0 0.0 0.00 0.18 0.00 1 1005.8
20260507043005 15 211 0.0 0.0 0.00 0.18 0.00 1 1005.4
20260507041605 15 210 0.0 0.0 0.03 0.18 0.00 1 1005.5
20260507040055 15 208 0.0 0.0 0.03 0.18 0.00 1 1005.7
20260507034552 15 208 0.0 0.0 0.03 0.18 0.18 1 1005.2
20260507033048 15 207 0.0 0.0 0.03 0.18 0.18 1 1005.3
20260507031543 15 202 0.0 0.0 0.00 0.15 0.15 1 1004.8
20260507030042 15 201 0.0 0.0 0.00 0.15 0.15 1 1004.7
20260507024535 15 201 0.0 0.0 0.00 0.15 0.15 1 1004.7
20260507023030 15 201 0.0 0.0 0.00 0.15 0.15 1 1004.8
20260507021525 15 191 0.0 0.0 0.00 0.15 0.15 1 1004.9
20260507020023 15 208 0.0 0.0 0.00 0.15 0.15 1 1004.7
20260507014517 15 209 0.0 0.0 0.00 0.15 0.15 1 1005.0
20260507013012 15 169 0.0 0.0 0.00 0.15 0.15 1 1004.9
20260507011508 15 167 0.0 0.0 0.00 0.15 0.15 1 1005.0
20260507010004 15 154 0.0 0.0 0.00 0.15 0.15 1 1005.0
20260507004559 15 103 0.0 0.0 0.00 0.15 0.15 1 1005.2
20260507003055 15 165 0.0 0.0 0.00 0.15 0.15 1 1005.0
20260507001553 15 150 0.0 0.0 0.03 0.15 0.15 1 1005.1
20260507000046 15 173 0.0 0.0 0.05 0.15 0.15 1 1004.8
20260506234541 15 153 0.0 0.0 0.05 0.15 0.15 1 1004.8
20260506233037 15 161 0.0 0.0 0.05 0.15 0.15 1 1004.7
20260506231533 15 171 0.0 0.0 0.03 0.13 0.13 1 1004.7
20260506230028 15 136 0.0 0.0 0.00 0.10 0.10 1 1004.8
20260506224524 15 167 0.0 0.0 0.00 0.10 0.10 1 1004.9